FW6537 Weather Reports


time (UTC)temp
C
wind
direction
speed
KPH
gust
KPH
rain 1hr
cm
rain 24hr
cm
rain mn
cm
humidity
%
barometer
mb
20260510204641 14 113 6.4 14.5 0.00 0.18 0.03 38 1015.3
20260510203132 14 108 6.4 14.5 0.00 0.18 0.03 42 1015.2
20260510201627 14 58 3.2 17.7 0.00 0.18 0.03 46 1014.8
20260510200139 14 95 4.8 14.5 0.00 0.18 0.03 46 1014.8
20260510194640 15 96 3.2 11.3 0.00 0.18 0.03 46 1014.7
20260510193138 15 132 8.0 20.9 0.00 0.18 0.03 46 1014.6
20260510190130 15 221 4.8 12.9 0.00 0.18 0.03 48 1014.4
20260510184627 15 155 6.4 11.3 0.00 0.18 0.03 48 1014.5
20260510183148 15 150 4.8 16.1 0.00 0.18 0.03 47 1014.4
20260510181643 14 203 4.8 16.1 0.00 0.18 0.03 51 1014.0
20260510180135 15 212 4.8 14.5 0.00 0.18 0.03 48 1013.8
20260510174625 14 128 4.8 14.5 0.00 0.18 0.03 47 1013.8
20260510173138 14 163 4.8 11.3 0.00 0.18 0.03 48 1013.9
20260510171635 14 132 3.2 9.7 0.00 0.18 0.03 48 1013.8
20260510170136 13 134 4.8 14.5 0.00 0.18 0.03 51 1013.8
20260510164625 13 167 4.8 12.9 0.00 0.18 0.03 52 1013.8
20260510163149 14 89 1.6 12.9 0.00 0.18 0.03 53 1013.7
20260510161649 13 202 4.8 12.9 0.00 0.18 0.03 51 1013.7
20260510160137 14 179 4.8 11.3 0.00 0.18 0.03 53 1013.6
20260510154635 14 136 4.8 12.9 0.00 0.18 0.03 54 1013.7
20260510153127 13 89 3.2 11.3 0.00 0.18 0.03 51 1013.5
20260510151639 14 98 4.8 9.7 0.00 0.18 0.03 49 1013.5
20260510150130 13 148 3.2 9.7 0.00 0.18 0.03 56 1013.1
20260510144622 13 166 1.6 6.4 0.00 0.18 0.03 54 1012.8
20260510143132 12 103 1.6 9.7 0.00 0.18 0.03 58 1012.9
20260510141622 12 97 1.6 6.4 0.00 0.18 0.03 60 1012.8
20260510140134 11 86 1.6 8.0 0.00 0.18 0.03 57 1012.5
20260510134646 11 95 0.0 4.8 0.00 0.18 0.03 63 1012.3
20260510133144 11 139 3.2 6.4 0.00 0.18 0.03 66 1012.5
20260510131637 10 98 1.6 6.4 0.00 0.18 0.03 66 1012.5
20260510130122 10 75 1.6 6.4 0.00 0.18 0.03 69 1012.5
20260510124622 10 80 1.6 6.4 0.00 0.18 0.03 69 1012.4
20260510123140 10 98 1.6 6.4 0.00 0.18 0.03 72 1012.4
20260510121632 10 92 1.6 6.4 0.00 0.18 0.03 73 1012.2
20260510120144 10 111 0.0 6.4 0.00 0.18 0.03 73 1011.5
20260510114639 10 104 1.6 4.8 0.00 0.18 0.03 76 1011.6
20260510113148 10 112 0.0 4.8 0.00 0.18 0.03 75 1010.9
20260510111640 10 114 0.0 1.6 0.00 0.18 0.03 78 1010.8
20260510110151 10 137 4.8 11.3 0.00 0.18 0.03 80 1010.4
20260510104702 10 127 1.6 4.8 0.00 0.18 0.03 84 1009.9
20260510103154 10 101 0.0 9.7 0.00 0.18 0.03 85 1009.3
20260510101626 11 99 1.6 11.3 0.00 0.18 0.03 88 1009.3
20260510100141 11 99 1.6 4.8 0.00 0.18 0.03 90 1008.9
20260510094632 11 105 0.0 6.4 0.00 0.18 0.03 90 1008.5
20260510093129 11 94 3.2 9.7 0.00 0.18 0.03 93 1008.3
20260510091625 10 105 0.0 1.6 0.00 0.18 0.03 95 1008.2
20260510090145 9 107 0.0 1.6 0.00 0.18 0.03 95 1008.0
20260510084643 9 148 0.0 0.0 0.00 0.18 0.03 94 1008.0
20260510083138 9 148 0.0 0.0 0.00 0.18 0.03 95 1007.8
20260510081636 8 79 0.0 3.2 0.00 0.18 0.03 94 1007.7
20260510080133 8 86 0.0 0.0 0.00 0.18 0.03 94 1007.5
20260510074628 8 86 0.0 0.0 0.00 0.18 0.03 94 1007.2
20260510073123 9 86 0.0 0.0 0.00 0.18 0.03 93 1007.3
20260510071657 9 86 0.0 0.0 0.00 0.18 0.03 93 1007.1
20260510070132 9 85 0.0 3.2 0.00 0.18 0.03 93 1006.8
20260510064637 9 79 0.0 1.6 0.00 0.18 0.03 93 1006.8
20260510063137 10 83 0.0 3.2 0.00 0.18 0.03 93 1006.7
20260510061629 10 97 0.0 1.6 0.00 0.18 0.03 93 1006.8
20260510060148 10 104 0.0 1.6 0.00 0.18 0.03 93 1007.0
20260510054632 10 104 0.0 3.2 0.00 0.18 0.03 92 1007.2
20260510053128 10 69 0.0 3.2 0.00 0.18 0.03 92 1007.2
20260510051622 10 69 0.0 4.8 0.00 0.18 0.03 92 1007.1
20260510050137 11 63 1.6 4.8 0.03 0.18 0.03 92 1006.8
20260510044631 11 101 3.2 6.4 0.05 0.18 0.03 92 1006.5
20260510043148 11 50 3.2 6.4 0.08 0.18 0.03 92 1006.8
20260510041726 11 49 1.6 6.4 0.08 0.18 0.03 92 1006.7
20260510040129 11 71 3.2 4.8 0.08 0.15 0.00 92 1007.1
20260510034634 11 341 1.6 4.8 0.05 0.13 0.13 91 1007.0
20260510033149 11 329 3.2 9.7 0.05 0.10 0.10 90 1007.1
20260510031639 12 34 1.6 3.2 0.10 0.10 0.10 88 1007.0
20260510030140 12 94 0.0 19.3 0.08 0.08 0.08 86 1007.6
20260510024636 12 103 4.8 17.7 0.08 0.08 0.08 84 1007.2
20260510023130 14 87 8.0 20.9 0.00 0.00 0.00 82 1007.3
20260510021623 13 129 1.6 6.4 0.00 0.00 0.00 83 1005.7
20260510020144 13 13 1.6 4.8 0.00 0.00 0.00 83 1005.3
20260510014631 13 60 1.6 4.8 0.00 0.00 0.00 83 1005.3
20260510013126 13 333 0.0 4.8 0.00 0.00 0.00 83 1005.2
20260510011624 13 79 0.0 0.0 0.00 0.00 0.00 83 1005.1
20260510010122 13 94 0.0 0.0 0.00 0.00 0.00 82 1004.9
20260510004641 13 77 0.0 3.2 0.00 0.00 0.00 81 1004.7
20260510003158 13 86 0.0 3.2 0.00 0.00 0.00 79 1004.7
20260510001637 14 69 1.6 4.8 0.00 0.00 0.00 78 1004.7
20260510000136 14 338 1.6 6.4 0.00 0.00 0.00 77 1004.6
20260509234631 15 71 1.6 4.8 0.00 0.00 0.00 76 1004.3
20260509233149 15 75 1.6 9.7 0.00 0.00 0.00 75 1004.4
20260509231706 15 333 1.6 8.0 0.00 0.00 0.00 74 1004.3
20260509230134 16 65 0.0 4.8 0.00 0.00 0.00 72 1004.4
20260509224631 17 137 1.6 8.0 0.00 0.00 0.00 69 1004.4
20260509223129 17 50 3.2 9.7 0.00 0.00 0.00 69 1004.2
20260509221627 17 66 1.6 8.0 0.00 0.00 0.00 68 1004.5
20260509220126 17 35 3.2 11.3 0.00 0.00 0.00 68 1004.6
20260509214626 17 26 6.4 12.9 0.00 0.00 0.00 67 1004.4
20260509213138 17 65 8.0 14.5 0.00 0.00 0.00 67 1004.4
20260509211632 17 12 4.8 19.3 0.00 0.00 0.00 67 1004.6
20260509210124 17 37 4.8 11.3 0.00 0.00 0.00 67 1004.8